{"data":{"norad_id":66912,"epoch":"2026-06-29T08:20:23.927424Z","epoch_age_seconds":7198739,"freshness":"OLD","line1":"1 66912U 98067XY  26180.34749916  .03033787  11989-4  10774-2 0  9998","line2":"2 66912  51.6040 208.4573 0006307 344.7501  15.3327 16.24233034 32803","mean_motion":16.24233034,"eccentricity":0.0006307,"inclination_deg":51.604,"raan_deg":208.4573,"arg_perigee_deg":344.7501,"mean_anomaly_deg":15.3327,"bstar":0.0010774,"rev_number":3280,"period_min":88.657228972478,"perigee_km":203.92980743561,"apogee_km":212.23766627308,"semimajor_km":6586.2207368543,"source":"CELESTRAK","updated_at":"2026-07-02T09:00:24.269820Z"}}